Location: Barksea
(50.6833°N, 1.9667°W)
Time: 13:09:41
(UTC+00:00)

Daily predictions for brighter satellites

Satellite Brightness Start Highest point End
(mag) Time Altitude Azimuth Time Altitude Azimuth Time Altitude Azimuth
GEOS 3 Rocket 4.1 20:58:47 10° NE 21:03:56 43° ESE 21:09:03 10° SSW
Cosmos 2278 Rocket 3.4 21:01:44 10° NNW 21:06:51 33° NE 21:11:57 10° ESE
USA 215 3.9 21:01:46 10° ENE 21:07:35 33° SE 21:13:22 10° SSW
ATLAS 5 CENTAUR R/B 1.7 21:06:58 10° SSW 21:11:00 51° SE 21:15:33 10° NE
Cosmos 1844 Rocket 2.9 21:06:26 10° NNW 21:12:00 72° WSW 21:17:32 10° SSE
Gblst 52 Del rocket 4.3 21:06:58 10° WNW 21:12:36 85° SSW 21:18:47 10° ESE
USA 245 3.3 21:09:25 10° S 21:12:46 80° WSW 21:17:05 10° NNW
Cosmos 1400 Rocket 2.8 21:08:59 10° NNW 21:13:02 87° E 21:16:57 10° SSE
Cosmos 1758 Rocket 3.6 21:11:07 10° S 21:15:37 81° E 21:20:08 10° NNE
Meteor 2-10 Rocket 4.3 21:11:05 10° NNW 21:16:02 52° W 21:21:06 10° S
Lacrosse 5 rocket 3.0 21:14:43 10° W 21:18:44 38° NNW 21:22:32 10° ENE
SPOT 5 3.2 21:14:24 10° SSE 21:19:19 58° ENE 21:24:01 10° N
BREEZE-M DEB (TANK) 4.2 21:15:34 10° W 21:19:28 82° S 21:34:08 10° E
Spot 2 Rocket 3.8 21:18:07 10° S 21:23:11 68° WSW 21:28:18 10° NNW
USA 81 4.4 21:20:39 10° SSE 21:25:41 48° E 21:30:46 10° NNE
BREEZE M DEB (TANK) 2.9 21:23:31 10° W 21:26:05 28° SSW 21:27:39 13° SSE
Landsat 7 4.2 21:22:58 10° S 21:27:41 65° WSW 21:32:27 10° NNW
Cosmos 2181 Rocket 4.1 21:21:28 10° N 21:27:49 68° ENE 21:34:03 10° SSE
SPOT 1/Viking Rocket 3.9 21:32:41 10° S 21:37:47 66° WSW 21:42:58 10° NNW
Cosmos 1953 Rocket 3.5 21:34:25 10° S 21:38:43 77° E 21:43:04 10° NNE
USA 267 3.4 21:35:18 10° ESE 21:41:52 80° NNE 21:48:28 10° WNW
SAR-Lupe-2 3.5 21:39:36 10° NNE 21:43:12 90° S 21:46:48 10° SSW
Cosmos 1328 4.2 21:39:34 10° SSW 21:43:31 63° WNW 21:47:29 10° N
Cosmos 2084 3.5 21:39:42 10° NW 21:44:12 88° SW 21:48:05 13° SE
Cosmos 1842 Rocket 3.9 21:41:10 10° N 21:45:27 51° ENE 21:49:02 14° SSE
Cosmos 2322 Rocket 3.6 21:40:26 10° WSW 21:45:44 41° NW 21:51:04 10° NNE
Cosmos 1455 4.2 21:43:05 10° NNW 21:46:18 25° W 21:49:30 10° SW
Cosmos 1825 Rocket 4.4 21:50:09 10° SSW 21:54:29 53° WNW 21:58:54 10° N
ATLAS CENTAUR R/B 1.1 21:52:01 10° NW 21:55:43 69° SW 21:58:26 17° SSE
Cosmos 1825 4.4 21:58:14 10° ESE 21:59:49 12° E 22:01:25 10° ENE
COSMOS 2428 2.7 21:59:52 10° SSW 22:05:28 66° ESE 22:11:07 10° NE
Cosmos 1869 3.4 22:02:29 10° N 22:06:28 67° E 22:09:22 18° SSE
Cosmos 2322 3.9 22:03:38 10° SW 22:09:22 78° WNW 22:15:08 10° NNE
NOSS 3-4 (A) 4.0 22:05:46 10° NW 22:12:35 71° NE 22:19:47 12° SE
NOSS 3-4 (C) 4.0 22:05:53 10° NW 22:12:41 71° NE 22:19:55 11° SE
NOSS 0 Rocket 4.3 22:07:32 11° S 22:12:59 43° ESE 22:18:46 10° NE
Terra 2.1 22:10:34 14° S 22:14:39 65° WSW 22:19:25 10° NNW
Cosmos 2237 Rocket 2.9 22:14:58 16° SSE 22:18:59 37° ESE 22:24:10 10° NE
BREEZE-M DEB 4.3 22:15:37 10° W 22:19:28 58° SSW 22:33:32 10° ESE
Atlas Centaur 2 4.3 22:19:01 10° SSW 22:21:10 12° S 22:21:21 12° S
Cosmos 2219 Rocket 2.2 22:15:40 10° SSW 22:21:16 89° WNW 22:26:55 10° NNE
Cosmos 2344 4.3 22:16:02 14° SSE 22:21:25 32° ESE 22:28:11 10° NE
Cosmos 1538 Rocket 4.1 22:17:12 10° SSW 22:22:34 85° WNW 22:27:56 10° NNE
Cosmos 2360 Rocket 3.7 22:18:18 10° WSW 22:23:36 40° NW 22:28:57 10° NNE
NOSS 3-3 (A) 3.9 22:17:50 10° SSW 22:23:44 76° SE 22:30:29 10° NE
NOSS 3-3 (C) 3.9 22:17:56 10° SSW 22:23:51 76° SE 22:30:36 10° NE
Cosmos 1315 Rocket 3.8 22:22:43 10° NNW 22:26:35 42° W 22:29:55 13° SSW
Thor Agena Rocket 4.1 22:25:26 10° NNE 22:30:14 39° E 22:33:18 20° SSE
Cosmos 2333 Rocket 2.5 22:25:44 10° SW 22:31:25 74° WNW 22:37:11 10° NNE
Meteor 2-2 Rocket 4.4 22:25:38 10° NNW 22:31:28 78° W 22:35:55 17° S
Cosmos 2184 Rocket 4.0 22:27:10 13° S 22:32:53 86° E 22:39:15 10° N
Cosmos 2221 2.9 22:31:54 10° NNW 22:36:14 61° W 22:39:20 18° S
BREEZE-M DEB (TANK) 1.7 22:34:55 10° W 22:39:46 68° SSW 22:41:21 21° ESE
Iridium 2 4.0 22:36:40 10° N 22:40:26 53° E 22:42:26 25° SSE
Cosmos 1371 Rocket 4.2 22:35:18 10° NNW 22:40:34 67° ENE 22:44:15 20° SE
ATLAS 2AS CENTAUR R/B 2.9 22:32:53 10° NW 22:40:37 87° NE 22:46:24 16° SE
EO 1 Del DPAF 3.9 22:39:49 10° NNE 22:43:23 38° E 22:45:00 25° SSE
Cosmos 1892 2.6 22:41:59 22° S 22:44:20 82° E 22:48:09 10° NNE
Aureole 2 Rocket 3.4 22:45:10 10° N 22:47:41 29° ENE 22:48:59 20° ESE
Cosmos 1606 3.9 22:46:45 10° N 22:50:17 32° ENE 22:52:19 19° ESE
USA 215 3.2 22:44:33 10° ENE 22:51:09 86° SSE 22:57:43 10° WSW
Cosmos 2278 Rocket 2.5 22:45:42 10° NW 22:51:15 57° WSW 22:54:59 21° S
Cosmos 2112 Rocket 4.2 22:48:24 20° S 22:51:59 56° ESE 22:57:14 10° NNE
Cosmos 2297 4.2 22:47:03 10° NNW 22:52:43 55° NE 22:57:11 16° SE
ATLAS 5 CENTAUR R/B 3.4 22:51:48 10° W 22:55:50 35° NNW 23:00:25 10° NE
Cosmos 158 Rocket 3.9 22:52:56 21° S 22:56:09 62° ESE 23:01:01 10° NNE
Lacrosse 5 rocket 2.9 22:54:45 10° WNW 22:58:36 36° N 23:02:14 10° ENE
Cosmos 1943 Rocket 3.5 22:53:58 10° NNW 22:59:09 35° NE 23:04:19 10° ESE
Spot 4 3.8 22:59:07 24° SSE 23:02:03 86° WSW 23:06:51 10° NNW
SL-16 R/B 3.1 23:00:47 22° SSE 23:03:23 31° ESE 23:08:19 10° NE
Cosmos 2058 3.2 23:01:10 19° SSW 23:04:05 64° WNW 23:08:13 10° N
Cosmos 2056 Rocket 3.6 22:59:05 10° NNW 23:04:32 87° ENE 23:07:58 24° SSE
Cosmos 1408 2.4 23:03:24 28° S 23:05:09 88° ESE 23:08:45 10° N
Nadezhda 3 Rocket 4.3 23:03:05 10° NNW 23:09:24 67° W 23:13:54 20° S
Cosmos 2154 Rocket 4.1 23:07:50 17° SSW 23:12:47 76° WNW 23:19:03 10° N
Cosmos 2341 Rocket 4.0 23:11:46 22° S 23:15:52 69° E 23:22:04 10° NNE
Cosmos 1076 Rocket 4.0 23:12:53 18° SSW 23:15:55 56° WNW 23:20:08 10° N
Cosmos 1680 Rocket 3.6 23:15:58 16° SSW 23:20:20 80° WNW 23:25:43 10° NNE
USA 267 3.7 23:21:24 23° SSE 23:25:13 44° SW 23:31:27 10° WNW
Cosmos 2151 2.9 23:23:52 28° S 23:26:05 86° E 23:30:23 10° N
Helios 1A 3.7 23:24:53 22° SE 23:27:12 44° ENE 23:31:10 10° N
Cosmos 1452 Rocket 3.9 23:26:20 10° NNW 23:31:33 59° ENE 23:35:06 20° SE
CZ-4C R/B 3.7 23:25:17 10° NW 23:31:50 50° NNE 23:39:30 10° ESE
BREEZE-M DEB (TANK) 4.2 23:30:06 10° W 23:32:27 14° WSW 23:32:45 14° SW
COSMOS 2455 3.2 23:27:10 10° NNW 23:33:12 63° NE 23:38:24 14° SE
Cosmos 1825 2.4 23:32:56 28° SSW 23:34:47 64° WNW 23:38:35 10° N
SL-8 Rocket 4.0 23:30:59 24° S 23:34:49 72° E 23:40:58 10° NNE
IRIDIUM 114 4.4 23:32:35 26° SSE 23:35:28 67° E 23:40:40 10° N
Cosmos 1340 3.3 23:34:23 31° SE 23:35:35 41° E 23:39:10 10° NNE
Cosmos 1933 3.3 23:32:26 10° N 23:36:29 75° E 23:38:13 32° SSE
ALOS 2 2.6 23:35:27 30° S 23:37:34 75° WSW 23:42:00 10° NNW
Cosmos 1408 Rocket 4.1 23:35:56 28° SSE 23:37:49 46° E 23:42:03 10° NNE
Cosmos 1151 Rocket 3.0 23:33:39 10° N 23:38:02 84° E 23:40:03 31° SSE
APEX 2.7 23:41:00 10° NNW 23:43:43 59° NE 23:44:22 42° ESE
Cosmos 2369 Rocket 3.0 23:38:27 10° NNW 23:43:53 48° NE 23:48:49 12° SE
Cosmos 1727 Rocket 4.2 23:37:47 10° N 23:44:00 64° ENE 23:48:04 23° SSE
Cosmos 1980 4.2 23:39:01 10° SW 23:44:35 57° NW 23:50:11 10° NNE
IRIDIUM 103 4.3 23:41:42 27° S 23:44:35 79° E 23:49:50 10° N
Cosmos 44 3.1 23:43:38 31° S 23:45:26 55° SE 23:49:48 10° NE
GP-B 3.1 23:42:12 10° N 23:46:40 82° W 23:48:50 30° S
Cosmos 371 Rocket 3.2 23:43:00 10° NNW 23:47:53 84° WSW 23:50:25 29° SSE
SL-4 R/B 1.0 23:48:59 53° N 23:48:59 53° N 23:50:41 10° NNW
Helios 1B rocket 4.1 23:50:37 10° NE 23:53:51 22° E 23:55:23 18° ESE
CREW DRAGON DEMO-1 DEB 2.8 23:54:49 55° S 23:55:00 57° SSE 23:58:02 10° ENE
